Regional Weather Roundup
Issued by NWS

Home | Current Version | Previous Version | Graphics & Text | Print | Product List | Glossary On
Versions: 1 2 3 4 5 6 7 8 9 10 11 12 13 14 15 16 17 18 19 20 21 22 23 24 25 26 27 28 29 30 31 32 33 34 35 36 37 38 39 40 41 42 43 44 45 46 47 48 49 50
000
ASUS45 KSLC 061110
RWRUT

UTAH REGIONAL WEATHER ROUNDUP
NATIONAL WEATHER SERVICE SALT LAKE CITY UT
500 AM MDT MON JUL 06 2015

UTZ001>011-023>025-061200-

NORTHERN UTAH

CITY           SKY/WX    TMP DP  RH WIND       PRES   REMARKS
BRIGHAM CITY   CLOUDY    63  57  81 CALM      30.08S
HILL AFB       CLEAR     66  54  66 E14       30.10R
LOGAN          MOCLDY    58  56  93 NW3       30.11R
OGDEN          CLEAR     65  54  67 S7        30.08R
PROVO AIRPORT  CLEAR     64  52  63 SE7       30.11R
SALT LAKE CITY CLEAR     71  57  61 SE6       30.07R
VERNAL         CLEAR     62  53  72 NW3       30.15S
WENDOVER       CLEAR     73  50  43 W10       30.10R
HEBER CITY     CLEAR     54  50  87 CALM      30.19R
WEST JORDAN    CLEAR     66  52  59 SW5       30.10S

$$

UTZ012>022-026-027-061200-

SOUTHERN/CENTRAL UTAH

CITY           SKY/WX    TMP DP  RH WIND       PRES   REMARKS
BLANDING       MOCLDY    62  55  78 NW7       30.23F
BRYCE CANYON   CLOUDY    57  48  72 W3        30.32S
CEDAR CITY     CLOUDY    68  47  46 S5        30.17S
DELTA          PTCLDY    69  46  44 E3        30.11R
HANKSVILLE     MOCLDY    66  61  82 NW5       30.11S
MILFORD        MOCLDY    66  47  50 S7        30.12S
MOAB/CYNLANDS  CLEAR     67  59  75 CALM      30.09R
PRICE          PTCLDY    63  51  65 NE6       30.19R
ST GEORGE      SUNNY     79  52  38 SE10      30.02R
KANAB          CLOUDY    70  54  56 CALM      30.22S

$$

REGIONAL REPORTS     COLORADO/ARIZONA

CITY           SKY/WX    TMP DP  RH WIND       PRES   REMARKS
CRAIG, CO      FOG       51  50  96 CALM      30.24S VSB 1/4
GRAND JUNCTION PTCLDY    61  58  90 E8        30.13R
RIFLE          MOCLDY    58  55  90 E3        30.19S
MONTROSE       MOCLDY    59  54  83 S5        30.21R
CORTEZ         PTCLDY    61  53  75 E5        30.18S
PAGE, AZ       CLOUDY    78  49  35 CALM      30.08R
GRAND CANYON   CLOUDY    57  54  89 CALM      30.30S
KINGMAN        MOCLDY    70  60  70 SE8       30.09S
FLAGSTAFF      CLOUDY    55  54  96 SW6       30.30F

$$

REGIONAL REPORTS    NEVADA/IDAHO/WYOMING

CITY           SKY/WX    TMP DP  RH WIND       PRES   REMARKS
LAS VEGAS, NV  CLOUDY    85  53  33 S8        29.92R
ELY            CLOUDY    62  40  44 CALM      30.24S
ELKO           CLEAR     57  45  64 CALM      30.18R
POCATELLO, ID  PTCLDY    66  54  65 SW12      30.12R
BURLEY         CLOUDY    61  53  75 CALM      30.09R
EVANSTON, WY   CLEAR     52  50  93 E12       30.27R
ROCK SPRINGS   MOCLDY    56  53  90 NE9       30.28R
KEMMERER       PTCLDY    52  48  87 N10       30.29S

$$


USA.gov is the U.S. government's official web portal to all federal, state and local government web resources and services.